Location: Strawberry
(45.6646°N, 111.9596°W)
Time: 19:19:00
(UTC+00:00)

Vanguard 1 Rocket - Pass Details

Date: 04 October 2022
Orbit: 650 x 4225 km, 34.3° (Epoch: 01 December)

Event Time Altitude Azimuth Distance (km) Brightness Sun altitude
Rises 08:55:19 0° 272° (W) 5,235 - -43.5°
Reaches altitude 10° 09:01:54 10° 246° (WSW) 3,387 - -42.8°
Maximum altitude 09:04:39 12° 225° (SW) 2,892 - -42.5°
Drops below altitude 10° 09:07:01 10° 204° (SSW) 2,766 - -42.3°
Sets 09:11:01 0° 172° (S) 3,296 - -41.8°
